Weather History for KRYV - March, 2014

Change the Weather History Date:

Tuesday, March 4, 2014

  Actual Average Record
Temperature  
Mean Temperature 13 °F -  
Max Temperature 18 °F 38 °F 69 °F (1983)
Min Temperature 8 °F 22 °F -13 °F (2002)
Degree Days  
Heating Degree Days 52    
Moisture  
Dew Point 7 °F    
Average Humidity 73    
Maximum Humidity 92    
Minimum Humidity 60    
Precipitation  
Precipitation 0.06 in - - ()
Sea Level Pressure  
Sea Level Pressure 30.22 in    
Wind  
Wind Speed 3 mph (SSW)    
Max Wind Speed 8 mph    
Max Gust Speed -    
Visibility 8 miles    
Events Snow    
Averages and records for this station are not official NWS values.
T = Trace of Precipitation, MM = Missing Value Source: NWS Daily Summary

Daily Weather History Graph

Daily Weather History Graph

Search for Another Location

Airport or City:

Trip Planner

Search our weather history database for the weather conditions in past years. The results will help you decide how hot, cold, wet, or windy it might be!

Date:

Astronomy

Mar. 04, 2014 Rise Set
Actual Time 6:25 AM CST 5:47 PM CST
Civil Twilight 5:57 AM CST 6:16 PM CST
Nautical Twilight 5:24 AM CST 6:49 PM CST
Astronomical Twilight 4:51 AM CST 7:22 PM CST
Moon 8:05 AM CST (3/4) 10:02 PM CST (3/4)
Length of Visible Light 12h 18m
Length of Day
11h 21m
Waxing Crescent, 15% of the Moon is Illuminated
Mar 4
Waxing Crescent
Mar 8
First Quarter
Mar 16
Full
Mar 23
Last Quarter
Mar 30
New

Hourly Weather History & Observations

Time (CST) Temp. Windchill Dew Point Humidity Pressure Visibility Wind Dir Wind Speed Gust Speed Precip Events Conditions
12:15 AM 10.4 °F 4.0 °F 1.8 °F 68% 30.31 in 10.0 mi SSW 3.5 mph - N/A   Overcast
12:35 AM 10.4 °F 2.2 °F 1.8 °F 68% 30.30 in 10.0 mi SSW 4.6 mph - N/A   Overcast
12:55 AM 10.4 °F 2.2 °F 1.9 °F 69% 30.30 in 10.0 mi SSW 4.6 mph - N/A   Overcast
1:15 AM 10.0 °F - 3.9 °F 76% 30.30 in 2.0 mi Calm Calm - N/A Snow Light Snow
1:35 AM 9.5 °F - 5.9 °F 85% 30.29 in 1.0 mi Calm Calm - N/A Snow Snow
1:55 AM 9.3 °F - 6.3 °F 87% 30.29 in 1.2 mi Calm Calm - N/A Snow Light Snow
2:15 AM 9.3 °F - 6.6 °F 89% 30.28 in 1.0 mi Calm Calm - N/A Snow Snow
2:35 AM 9.3 °F - 6.6 °F 89% 30.28 in 1.5 mi Calm Calm - 0.02 in Snow Light Snow
2:55 AM 9.3 °F - 6.6 °F 89% 30.27 in 1.0 mi Calm Calm - 0.02 in Snow Snow
3:15 AM 9.3 °F - 6.6 °F 89% 30.27 in 1.0 mi Calm Calm - N/A Snow Light Snow
3:35 AM 9.1 °F 2.6 °F 6.4 °F 89% 30.26 in 2.0 mi South 3.5 mph - N/A Snow Light Snow
3:55 AM 9.1 °F 0.8 °F 6.1 °F 87% 30.25 in 1.2 mi South 4.6 mph - N/A Snow Light Snow
4:15 AM 9.1 °F 0.8 °F 5.9 °F 87% 30.25 in 2.0 mi SSW 4.6 mph - N/A Snow Light Snow
4:31 AM 8.6 °F 2.0 °F 6.8 °F 92% 30.24 in 2.0 mi South 3.5 mph - N/A Snow Light Snow
4:35 AM 9.3 °F - 6.3 °F 87% 30.24 in 2.0 mi Calm Calm - N/A Snow Light Snow
4:55 AM 9.3 °F 2.8 °F 6.3 °F 87% 30.24 in 1.8 mi South 3.5 mph - N/A Snow Light Snow
5:15 AM 9.3 °F 2.8 °F 6.3 °F 87% 30.24 in 2.0 mi South 3.5 mph - N/A Snow Light Snow
5:35 AM 9.5 °F 3.0 °F 6.3 °F 87% 30.24 in 3.0 mi South 3.5 mph - N/A   Overcast
5:55 AM 9.5 °F 3.0 °F 6.4 °F 87% 30.24 in 7.0 mi South 3.5 mph - N/A Snow Light Snow
6:07 AM 8.6 °F -1.3 °F 6.8 °F 92% 30.24 in 10.0 mi South 5.8 mph - N/A   Overcast
6:15 AM 9.5 °F 1.2 °F 5.9 °F 85% 30.24 in 10.0 mi South 4.6 mph - N/A   Overcast
6:35 AM 9.5 °F 3.0 °F 5.9 °F 85% 30.23 in 10.0 mi South 3.5 mph - N/A   Overcast
6:55 AM 9.5 °F 1.2 °F 5.9 °F 85% 30.23 in 10.0 mi SSW 4.6 mph - N/A   Overcast
7:15 AM 10.2 °F 2.0 °F 6.1 °F 83% 30.23 in 10.0 mi South 4.6 mph - N/A   Overcast
7:35 AM 10.4 °F 0.8 °F 5.9 °F 82% 30.22 in 10.0 mi South 5.8 mph - N/A   Overcast
7:55 AM 10.8 °F 0.0 °F 6.1 °F 81% 30.21 in 10.0 mi South 6.9 mph - N/A   Overcast
8:15 AM 11.3 °F 1.9 °F 6.4 °F 81% 30.21 in 10.0 mi SSW 5.8 mph - N/A   Overcast
8:35 AM 11.7 °F 0.0 °F 6.4 °F 80% 30.21 in 10.0 mi SSW 8.1 mph - N/A   Overcast
8:55 AM 12.2 °F 1.7 °F 6.6 °F 78% 30.21 in 10.0 mi SSW 6.9 mph - N/A   Overcast
9:15 AM 12.7 °F 3.6 °F 7.0 °F 78% 30.22 in 10.0 mi SSW 5.8 mph - N/A   Overcast
9:35 AM 13.3 °F 2.0 °F 6.8 °F 75% 30.20 in 10.0 mi SW 8.1 mph - N/A   Overcast
9:55 AM 13.6 °F 4.6 °F 6.8 °F 74% 30.20 in 10.0 mi SW 5.8 mph - N/A   Overcast
10:15 AM 14.5 °F 5.7 °F 6.8 °F 71% 30.19 in 10.0 mi SSW 5.8 mph - N/A   Overcast
10:35 AM 15.4 °F 6.8 °F 7.2 °F 70% 30.20 in 10.0 mi SW 5.8 mph - N/A   Overcast
10:55 AM 15.6 °F 7.0 °F 7.0 °F 69% 30.19 in 10.0 mi SW 5.8 mph - N/A   Overcast
11:15 AM 16.2 °F 10.6 °F 6.1 °F 65% 30.19 in 10.0 mi WSW 3.5 mph - N/A   Overcast
11:35 AM 16.3 °F 6.7 °F 5.9 °F 64% 30.19 in 10.0 mi West 6.9 mph - N/A   Overcast
11:55 AM 16.5 °F 6.9 °F 6.1 °F 64% 30.19 in 10.0 mi WNW 6.9 mph - 0.01 in   Overcast
12:15 PM 17.1 °F 11.7 °F 6.8 °F 64% 30.18 in 10.0 mi West 3.5 mph - 0.01 in   Overcast
12:35 PM 17.6 °F 12.3 °F 6.1 °F 61% 30.18 in 10.0 mi West 3.5 mph - 0.02 in   Overcast
12:55 PM 18.3 °F 13.1 °F 6.6 °F 60% 30.18 in 10.0 mi WSW 3.5 mph - 0.03 in   Overcast
1:15 PM 18.7 °F - 7.0 °F 60% 30.18 in 10.0 mi Calm Calm - N/A   Overcast
1:35 PM 18.3 °F - 6.8 °F 61% 30.17 in 10.0 mi Calm Calm - N/A   Overcast
1:55 PM 18.3 °F 10.2 °F 6.8 °F 61% 30.19 in 10.0 mi WNW 5.8 mph - N/A   Overcast
2:15 PM 18.5 °F - 7.0 °F 61% 30.18 in 10.0 mi Calm Calm - N/A   Overcast
2:35 PM 18.9 °F 13.7 °F 7.7 °F 62% 30.16 in 10.0 mi NW 3.5 mph - N/A   Overcast
2:55 PM 18.5 °F - 6.8 °F 60% 30.17 in 10.0 mi Calm Calm - N/A   Overcast
3:15 PM 18.5 °F 13.3 °F 7.0 °F 61% 30.17 in 10.0 mi NW 3.5 mph - N/A   Overcast
3:35 PM 18.7 °F - 7.2 °F 61% 30.17 in 10.0 mi Calm Calm - N/A   Overcast
3:55 PM 18.5 °F - 7.3 °F 62% 30.17 in 10.0 mi Calm Calm - N/A   Overcast
4:15 PM 18.3 °F 13.1 °F 7.5 °F 63% 30.17 in 10.0 mi North 3.5 mph - N/A   Overcast
4:35 PM 18.1 °F - 7.0 °F 62% 30.17 in 10.0 mi Calm Calm - N/A   Overcast
4:55 PM 18.1 °F 11.3 °F 7.5 °F 63% 30.17 in 10.0 mi NNE 4.6 mph - N/A   Overcast
5:15 PM 18.1 °F 11.3 °F 6.6 °F 61% 30.18 in 10.0 mi North 4.6 mph - N/A   Overcast
5:35 PM 18.0 °F - 6.6 °F 61% 30.18 in 10.0 mi Calm Calm - N/A   Overcast
5:55 PM 17.6 °F 12.3 °F 5.9 °F 60% 30.19 in 10.0 mi NNE 3.5 mph - N/A   Overcast
6:15 PM 17.6 °F 12.3 °F 7.7 °F 65% 30.19 in 10.0 mi NE 3.5 mph - N/A   Overcast
6:35 PM 17.2 °F 10.2 °F 7.3 °F 65% 30.20 in 10.0 mi NE 4.6 mph - N/A   Overcast
6:55 PM 17.2 °F 10.2 °F 7.5 °F 66% 30.20 in 10.0 mi NE 4.6 mph - N/A   Overcast
7:15 PM 17.2 °F 11.9 °F 7.5 °F 66% 30.21 in 10.0 mi NE 3.5 mph - N/A   Overcast
7:35 PM 17.2 °F 11.9 °F 7.9 °F 67% 30.20 in 10.0 mi NE 3.5 mph - N/A   Overcast
7:55 PM 17.2 °F 11.9 °F 7.9 °F 67% 30.21 in 10.0 mi North 3.5 mph - N/A   Overcast
8:15 PM 17.2 °F 10.2 °F 7.7 °F 66% 30.21 in 10.0 mi NNE 4.6 mph - N/A   Overcast
8:35 PM 17.2 °F 8.9 °F 7.7 °F 66% 30.23 in 10.0 mi NNE 5.8 mph - N/A   Overcast
8:55 PM 17.1 °F 8.7 °F 7.9 °F 67% 30.23 in 10.0 mi NNE 5.8 mph - N/A   Overcast
9:15 PM 16.7 °F 9.6 °F 7.9 °F 68% 30.23 in 10.0 mi NNE 4.6 mph - N/A   Overcast
9:35 PM 16.3 °F 7.8 °F 7.7 °F 69% 30.24 in 10.0 mi NE 5.8 mph - N/A   Overcast
9:55 PM 15.6 °F 10.0 °F 7.5 °F 70% 30.24 in 10.0 mi NE 3.5 mph - N/A   Overcast
10:15 PM 15.6 °F 8.3 °F 7.7 °F 71% 30.25 in 10.0 mi NE 4.6 mph - N/A   Overcast
10:35 PM 15.4 °F 8.1 °F 7.7 °F 71% 30.26 in 10.0 mi NE 4.6 mph - N/A   Overcast
10:55 PM 14.9 °F 7.5 °F 8.6 °F 76% 30.26 in 5.0 mi NE 4.6 mph - N/A Snow Light Snow
11:15 PM 14.7 °F 7.3 °F 9.0 °F 78% 30.25 in 7.0 mi ENE 4.6 mph - N/A   Overcast
11:35 PM 14.9 °F 7.5 °F 8.6 °F 76% 30.26 in 10.0 mi NE 4.6 mph - N/A   Overcast
11:55 PM 14.9 °F 6.1 °F 7.9 °F 74% 30.26 in 10.0 mi ENE 5.8 mph - N/A   Overcast